This demonstration page uses our WeatherBlox Daily Observations layout. Learn more.

Left ArrowRight Arrow

39.92423, -83.80882

Hourly Observations for June 21, 2018

Temp ( °F °C ) Dew Point ( °F °C ) Humidity (%) Winds ( mph kmh ) Pressure ( in mb ) Visibility ( mi km ) Precip ( " mm )
12:56 am 00:56 Mostly Clear with Mist and Fog 71 21.7 70 21.1 96 96 NE 5 7 29.83 1010 6 10 N/A
1:56 am 01:56 Mostly Clear with Mist and Fog 70 21.1 69 20.6 97 97 E 6 9 29.84 1010 5 8 N/A
2:56 am 02:56 Mostly Clear with Mist and Fog 70 21.1 69 20.6 97 97 E 6 9 29.83 1010 3 5 N/A
3:56 am 03:56 Mostly Clear with Mist and Fog 67 19.4 66 18.9 97 97 E 7 11 29.80 1009 4 6 N/A
4:56 am 04:56 Mostly Clear with Mist and Fog 67 19.4 66 18.9 97 97 E 5 7 29.81 1010 5 8 N/A
5:56 am 05:56 Mostly Clear with Mist and Fog 67 19.4 66 18.9 97 97 ENE 6 9 29.81 1010 3 5 N/A
6:05 am 06:05 Mostly Clear with Mist and Fog 66 19 66 19 100 100 NE 5 7 29.80 1009 3 4 N/A
6:56 am 06:56 Partly Cloudy with Mist and Fog 67 19.4 66 18.9 97 97 NE 10 17 29.83 1010 3 4 N/A
7:08 am 07:08 Partly Cloudy with Mist and Fog 66 19 66 19 100 100 ENE 8 13 29.80 1009 3 5 N/A
7:56 am 07:56 Partly Cloudy with Rain 66 18.9 65 18.3 96 96 ESE 7 11 29.84 1010 2 3 0.03 0.76
8:05 am 08:05 Partly Cloudy with Heavy Rain 66 19 64 18 94 94 E 8 13 29.83 1010 1 2 0.11 2.79
8:28 am 08:28 Partly Cloudy with Light Rain 64 18 64 18 100 100 E 7 11 29.83 1010 3 5 0.27 6.86
8:56 am 08:56 Partly Cloudy with Light Rain 66 18.9 65 18.3 96 96 E 7 11 29.83 1010 5 8 0.27 6.86
9:56 am 09:56 Sunny 69 20.6 67 19.4 93 93 E 8 13 29.82 1010 9 14 N/A
11:56 am 11:56 Partly Cloudy with Mist and Fog 70 21.1 69 20.6 97 97 ESE 9 15 29.81 1009 3 5 0.03 0.76
12:21 pm 12:21 Partly Cloudy with Rain 70 21 70 21 100 100 ESE 10 17 29.80 1009 3 4 0.01 0.25
12:56 pm 12:56 Partly Cloudy with Light Rain 70 21.1 69 20.6 97 97 E 9 15 29.80 1009 3 5 0.04 1.02
1:56 pm 13:56 Partly Cloudy with Light Rain 69 20.6 68 20 96 96 E 9 15 29.78 1009 3 5 0.01 0.25
2:07 pm 14:07 Partly Cloudy with Rain 70 21 68 20 94 94 E 8 13 29.77 1008 3 4 0.02 0.51
2:43 pm 14:43 Cloudy with Heavy Rain 70 21 68 20 94 94 E 9 15 29.77 1008 2 3 0.14 3.56
2:56 pm 14:56 Cloudy with Heavy Rain 69 20.6 68 20 96 96 E 9 15 29.77 1008 1 2 0.26 6.60
3:15 pm 15:15 Cloudy with Rain 70 21 68 20 94 94 E 10 17 29.74 1007 2 3 0.12 3.05
3:23 pm 15:23 Mostly Cloudy with Heavy Rain 70 21 70 21 100 100 E 8 13 29.74 1007 2 3 0.18 4.57
3:56 pm 15:56 Cloudy with Heavy Rain 69 20.6 68 20 96 96 E 8 13 29.77 1008 2 2 0.50 12.70
4:28 pm 16:28 Cloudy with Rain 70 21 68 20 94 94 E 9 15 29.74 1007 3 4 0.15 3.81
4:43 pm 16:43 Cloudy with Heavy Rain 70 21 70 21 100 100 E 7 11 29.74 1007 2 3 0.21 5.33
4:46 pm 16:46 Cloudy with Rain 70 21 70 21 100 100 ENE 8 13 29.74 1007 2 3 0.22 5.59
4:56 pm 16:56 Cloudy with Rain 69 20.6 69 20.6 100 100 E 8 13 29.76 1008 3 5 0.25 6.35
5:56 pm 17:56 Cloudy with Light Rain 70 21.1 69 20.6 97 97 E 8 13 29.75 1008 6 10 0.05 1.27
6:37 pm 18:37 Cloudy with Light Rain 70 21 70 21 100 100 E 8 13 29.74 1007 10 16 0.01 0.25
6:56 pm 18:56 Cloudy with Light Rain 70 21.1 70 21.1 100 100 E 10 17 29.75 1007 10 16 0.01 0.25
7:56 pm 19:56 Cloudy 70 21.1 70 21.1 100 100 E 7 11 29.75 1007 10 16 N/A
8:56 pm 20:56 Cloudy with Light Rain 70 21.1 69 20.6 97 97 E 7 11 29.75 1008 6 10 N/A
9:56 pm 21:56 Cloudy 69 20.6 69 20.6 100 100 E 8 13 29.75 1008 10 16 0.01 0.25
10:56 pm 22:56 Cloudy 69 20.6 69 20.6 100 100 E 12 19 29.76 1008 10 16 N/A
11:56 pm 23:56 Cloudy 69 20.6 68 20 96 96 E 7 11 29.75 1008 10 16 N/A

Powered by AerisWeather